Location: Bois de la Silve
(44.4667°N, 6.7833°E)
Time: 00:50:49
(UTC+00:00)

Cosmos 1741 Rocket - Visible Passes

Search period start: 24 October 2020 00:00
Search period end: 03 November 2020 00:00
Orbit: 761 x 782 km, 74.0° (Epoch: 23 October)

Date Brightness Start Highest point End Pass type
(mag) Time Alt. Az. Time Alt. Az. Time Alt. Az.
24 Oct 6.7 18:29:11 10° NW 18:32:50 19° W 18:36:28 10° SW visible
25 Oct 6.0 17:52:36 10° NW 17:57:12 31° W 18:01:45 10° SSW visible
26 Oct 5.0 17:16:24 10° NNW 17:21:28 52° WSW 17:26:30 10° S visible
27 Oct 7.5 18:26:02 10° W 18:26:53 10° W 18:27:45 10° W visible
28 Oct 7.1 17:47:54 10° NW 17:51:21 18° W 17:54:48 10° SW visible
29 Oct 7.3 05:04:31 10° SE 05:07:41 16° E 05:10:51 10° ENE visible
29 Oct 6.3 17:11:15 10° NW 17:15:45 29° W 17:20:11 10° SSW visible
31 Oct 5.4 05:32:30 10° S 05:37:31 46° ESE 05:42:34 10° NNE visible
01 Nov 6.3 04:57:22 10° SSE 05:01:49 28° E 05:06:17 10° NE visible
01 Nov 7.2 17:06:37 10° WNW 17:09:53 17° W 17:13:07 10° SW visible
02 Nov 7.0 04:22:51 10° SE 04:26:13 17° E 04:29:35 10° NE visible
